Weather History for Kalamazoo, MI

Change the Weather History Date:

Monday, July 29, 2013

  Actual Average Record
Temperature  
Mean Temperature 62 °F 72 °F  
Max Temperature 70 °F 83 °F 96 °F (1983)
Min Temperature 54 °F 62 °F 47 °F (2014)
Degree Days  
Heating Degree Days 3 0  
Month to date heating degree days 15 0  
Since 1 June heating degree days 54 48  
Since 1 July heating degree days 15 0  
Cooling Degree Days 0 7  
Month to date cooling degree days 231 227  
Year to date cooling degree days 457 413  
Since 1 June cooling degree days 377 372  
Growing Degree Days 13 (Base 50)    
Moisture  
Dew Point 54 °F    
Average Humidity 72    
Maximum Humidity 87    
Minimum Humidity 57    
Precipitation  
Precipitation T in 0.12 in 1.81 in (2011)
Month to date precipitation 3.19 3.46  
Year to date precipitation 24.54 19.48  
Sea Level Pressure  
Sea Level Pressure 30.10 in    
Wind  
Wind Speed 7 mph (WNW)    
Max Wind Speed 16 mph    
Max Gust Speed 20 mph    
Visibility 10 miles    
Events Rain    
T = Trace of Precipitation, MM = Missing Value Source: NWS Daily Summary

Daily Weather History Graph

Daily Weather History Graph

Search for Another Location

Airport:

Trip Planner

Search our weather history database for the weather conditions in past years. The results will help you decide how hot, cold, wet, or windy it might be!

Date:

Astronomy

Jul. 29, 2013 Rise Set
Actual Time 6:32 AM EDT 9:04 PM EDT
Civil Twilight 6:00 AM EDT 9:36 PM EDT
Nautical Twilight 5:20 AM EDT 10:16 PM EDT
Astronomical Twilight 4:35 AM EDT 11:00 PM EDT
Moon 12:17 AM EDT (7/29) 2:23 PM EDT (7/29)
Length of Visible Light 15h 36m
Length of Day
14h 32m
Waning Gibbous, 51% of the Moon is Illuminated
Jul 29
Waning Gibbous
Jul 29
Last Quarter
Aug 6
New
Aug 14
First Quarter
Aug 20
Full

Hourly Weather History & Observations

Time (EDT) Temp. Dew Point Humidity Pressure Visibility Wind Dir Wind Speed Gust Speed Precip Events Conditions
12:53 AM 59.0 °F 52.0 °F 78% 30.00 in 10.0 mi SSW 6.9 mph - N/A   Overcast
1:53 AM 59.0 °F 51.1 °F 75% 30.00 in 10.0 mi SW 8.1 mph - N/A   Overcast
2:53 AM 59.0 °F 51.1 °F 75% 29.99 in 10.0 mi SW 8.1 mph - 0.00 in   Overcast
3:53 AM 57.9 °F 54.0 °F 87% 30.00 in 10.0 mi WSW 4.6 mph - 0.00 in   Overcast
4:53 AM 57.9 °F 54.0 °F 87% 30.01 in 10.0 mi SW 3.5 mph - N/A   Overcast
5:50 AM 57.2 °F 53.6 °F 88% 30.02 in 10.0 mi WSW 4.6 mph - N/A   Overcast
5:53 AM 57.9 °F 54.0 °F 87% 30.03 in 10.0 mi WSW 5.8 mph - 0.00 in Rain Light Rain
6:12 AM 57.2 °F 55.4 °F 94% 30.04 in 10.0 mi West 4.6 mph - 0.00 in   Overcast
6:53 AM 57.9 °F 55.9 °F 93% 30.04 in 10.0 mi West 5.8 mph - 0.00 in   Overcast
7:00 AM 57.2 °F 55.4 °F 94% 30.04 in 10.0 mi West 4.6 mph - N/A   Overcast
7:34 AM 59.0 °F 55.4 °F 88% 30.05 in 10.0 mi West 4.6 mph - N/A   Overcast
7:49 AM 59.0 °F 55.4 °F 88% 30.06 in 10.0 mi WNW 4.6 mph - N/A   Overcast
7:53 AM 59.0 °F 55.9 °F 90% 30.06 in 10.0 mi WNW 3.5 mph - N/A   Overcast
8:53 AM 60.1 °F 55.9 °F 86% 30.08 in 10.0 mi NW 9.2 mph - N/A   Overcast
9:53 AM 62.1 °F 55.0 °F 78% 30.09 in 10.0 mi NNW 8.1 mph - N/A   Overcast
10:53 AM 61.0 °F 55.0 °F 81% 30.12 in 10.0 mi NW 11.5 mph - 0.00 in Rain Light Rain
11:53 AM 64.0 °F 54.0 °F 70% 30.12 in 10.0 mi NW 13.8 mph - 0.00 in   Overcast
12:53 PM 69.1 °F 55.9 °F 63% 30.13 in 10.0 mi NNW 11.5 mph - N/A   Mostly Cloudy
1:53 PM 66.9 °F 53.1 °F 61% 30.14 in 10.0 mi WNW 10.4 mph - N/A   Mostly Cloudy
2:53 PM 66.9 °F 54.0 °F 63% 30.14 in 10.0 mi NW 9.2 mph - N/A   Mostly Cloudy
3:53 PM 66.9 °F 54.0 °F 63% 30.16 in 10.0 mi WNW 11.5 mph - N/A   Mostly Cloudy
4:53 PM 68.0 °F 54.0 °F 61% 30.16 in 10.0 mi NNW 8.1 mph - N/A   Mostly Cloudy
5:53 PM 69.1 °F 53.1 °F 57% 30.16 in 10.0 mi WNW 10.4 mph - N/A   Scattered Clouds
6:53 PM 66.9 °F 53.1 °F 61% 30.17 in 10.0 mi NW 6.9 mph - N/A   Partly Cloudy
7:53 PM 66.0 °F 54.0 °F 65% 30.18 in 10.0 mi West 5.8 mph - N/A   Clear
8:53 PM 63.0 °F 53.1 °F 70% 30.19 in 10.0 mi WNW 3.5 mph - N/A   Clear
9:53 PM 60.1 °F 54.0 °F 80% 30.21 in 10.0 mi Calm Calm - N/A   Clear
10:53 PM 57.0 °F 53.1 °F 87% 30.21 in 10.0 mi Calm Calm - N/A   Clear
11:53 PM 55.0 °F 52.0 °F 89% 30.20 in 10.0 mi Calm Calm - N/A   Clear